(455) Bruchsalia
ephemeris date magn radius delta ra dec elong phase
Today13 Jul 202611.22.096 AU1.094 AU19h46m-34°54'166.4°6.5°
Opposition13 Jul 202611.22.094 AU1.093 AU19h45m-34°59'166.4°6.6°
(455) Bruchsalia - 2026-07-13
astro.vanbuitenen.nl


 
-1 year
-1 month
-1 day
Now
+1 day
+1 month
+1 year

The interactive orbit chart above shows the body's path through the solar system and its position at the given date. Green and blue lines are shown perpendicular to the ecliptic plane: Green if the path is above the ecliptic plane, blue if it is below. (Left-click and drag to rotate the view; Right-click and drag to move the view; Use scroll wheel to zoom in our out.)

The orbital elements of Bruchsalia are:

            e (Eccentricity)                : 0.2943201
            a (Semimajor axis)              : 2.6564184
            i (Inclination)                 : 12.01664
            Ω (Longitude of ascending node) : 76.06977
            ω (Argument of perihelion)      : 273.34337
            M (Mean anomaly)                : 319.82968
            Epoch                           : 2026 Jun 09

            L (Longitude of perihelion)     : -10.51213
            B (Latitude of perihelion)      : -11.99588
            P (Orbital period in years)     : 4.33            
        

The light curve chart below shows the estimated development of the minor planet's magnitude.


The all-sky chart below shows the path of the minor planet over the same period as the light curve. The current position is marked yellow.





The following chart shows the path of the minor planet in the next few days. The field of view is optimized for (~10x50) binoculars and finderscopes.




Ephemerides:
Date       Time       RA (2000)    DEC (2000)    delta   radius  elong  phase   PA    magn
2026-07-13 00:00 UT   19 46 02.5   -34 54 08     1.094    2.096  166.4    6.5   342   11.2 
2026-07-13 10:21 UT   19 45 37.7   -34 58 34     1.093    2.095  166.4    6.6   344   11.2 
2026-07-14 00:00 UT   19 45 04.8   -35 04 22     1.091    2.093  166.4    6.6   347   11.2 
2026-07-15 00:00 UT   19 44 06.4   -35 14 27     1.089    2.090  166.2    6.6   352   11.2 
2026-07-16 00:00 UT   19 43 07.4   -35 24 20     1.087    2.088  166.0    6.8   357   11.2 
2026-07-17 00:00 UT   19 42 07.8   -35 34 03     1.085    2.085  165.7    6.9     2   11.2 
2026-07-18 00:00 UT   19 41 07.8   -35 43 33     1.083    2.082  165.3    7.1     6   11.2 
2026-07-19 00:00 UT   19 40 07.6   -35 52 52     1.082    2.079  164.8    7.3    11   11.2 
2026-07-20 00:00 UT   19 39 07.2   -36 01 57     1.080    2.077  164.3    7.6    15   11.2 
2026-07-21 00:00 UT   19 38 06.7   -36 10 49     1.079    2.074  163.7    7.9    19   11.2 
2026-07-22 00:00 UT   19 37 06.3   -36 19 26     1.078    2.072  163.0    8.2    22   11.3 
2026-07-23 00:00 UT   19 36 06.0   -36 27 50     1.078    2.069  162.3    8.6    25   11.3 
2026-07-24 00:00 UT   19 35 06.1   -36 35 58     1.078    2.066  161.5    9.0    28   11.3 
2026-07-25 00:00 UT   19 34 06.5   -36 43 52     1.077    2.064  160.7    9.3    31   11.3 
2026-07-26 00:00 UT   19 33 07.4   -36 51 30     1.077    2.061  159.9    9.7    34   11.3 
2026-07-27 00:00 UT   19 32 08.9   -36 58 52     1.078    2.058  159.0   10.2    36   11.3 
2026-07-28 00:00 UT   19 31 11.1   -37 05 58     1.078    2.056  158.2   10.6    38   11.3 
2026-07-29 00:00 UT   19 30 14.2   -37 12 48     1.079    2.053  157.3   11.0    40   11.4 
2026-07-30 00:00 UT   19 29 18.1   -37 19 22     1.080    2.051  156.4   11.5    42   11.4 
2026-07-31 00:00 UT   19 28 23.2   -37 25 39     1.081    2.048  155.4   11.9    44   11.4 
2026-08-01 00:00 UT   19 27 29.3   -37 31 39     1.082    2.046  154.5   12.3    46   11.4 
2026-08-02 00:00 UT   19 26 36.7   -37 37 22     1.084    2.043  153.5   12.8    47   11.4 
2026-08-03 00:00 UT   19 25 45.4   -37 42 49     1.086    2.041  152.6   13.2    49   11.4 
2026-08-04 00:00 UT   19 24 55.5   -37 47 59     1.088    2.038  151.6   13.7    50   11.5 
2026-08-05 00:00 UT   19 24 07.2   -37 52 52     1.090    2.036  150.6   14.1    52   11.5 
2026-08-06 00:00 UT   19 23 20.4   -37 57 28     1.092    2.033  149.7   14.6    53   11.5 
2026-08-07 00:00 UT   19 22 35.4   -38 01 47     1.095    2.031  148.7   15.0    54   11.5 
2026-08-08 00:00 UT   19 21 52.2   -38 05 50     1.097    2.028  147.7   15.5    55   11.5 
2026-08-09 00:00 UT   19 21 10.8   -38 09 36     1.100    2.026  146.7   15.9    56   11.5 
2026-08-10 00:00 UT   19 20 31.4   -38 13 05     1.103    2.024  145.8   16.4    57   11.6 
2026-08-11 00:00 UT   19 19 54.1   -38 16 18     1.107    2.021  144.8   16.8    58   11.6 
2026-08-12 00:00 UT   19 19 18.8   -38 19 15     1.110    2.019  143.8   17.2    59   11.6 


    Terminology:
            
    delta:  distance between minor planet and earth in AU
    radius: distance between minor planet and sun in AU
    magn:   magnitude (brightness) estimate    
    ra:     right ascension in hours (24h = 360deg)
    dec:    declination in degrees
    elong:  elongation in degrees (angle sun-earth-minor planet)    
    phase:  phase angle in degrees (angle sun-minor planet-earth)        
    AU:     Astronomical Unit (mean distance between earth and sun: 149597870.7 km
    

Orbital elements provided by the MPC (Minor Planet Center).
Calculations by a modified version of AAPlus, a C# implementation of the AA+ project by PJ Naughter from the algorithms presented in the book "Astronomical Algorithms" by Jean Meeus.
NGC2000 dso catalog and star labels from VizieR as provided by the Strasbourg astronomical Data Center.
Tycho2 catalog from the ESO archive.